Weather History for K1V4 - November, 2012

Change the Weather History Date:

Wednesday, November 7, 2012

  Actual Average Record
Temperature  
Mean Temperature 25 °F 40 °F  
Max Temperature 34 °F 48 °F 74 °F (1938)
Min Temperature 16 °F 31 °F 14 °F (2002)
Degree Days  
Heating Degree Days 40 26  
Month to date heating degree days 205 171  
Since 1 July heating degree days 932 958  
Cooling Degree Days 0 0  
Month to date cooling degree days 0  
Year to date cooling degree days 433  
Moisture  
Dew Point 17 °F    
Average Humidity 72    
Maximum Humidity 92    
Minimum Humidity 51    
Precipitation  
Precipitation 0.00 in 0.12 in 1.16 in (1948)
Month to date precipitation 0.03 0.85  
Year to date precipitation 29.72 33.87  
Sea Level Pressure  
Sea Level Pressure 30.14 in    
Wind  
Wind Speed - (North)    
Max Wind Speed -    
Max Gust Speed -    
T = Trace of Precipitation, MM = Missing Value Source: NWS Daily Summary

Daily Weather History Graph

Daily Weather History Graph

Search for Another Location

Airport or City:

Trip Planner

Search our weather history database for the weather conditions in past years. The results will help you decide how hot, cold, wet, or windy it might be!

Date:

Astronomy

Nov. 07, 2012 Rise Set
Actual Time 6:34 AM EST 4:28 PM EST
Civil Twilight 6:03 AM EST 4:59 PM EST
Nautical Twilight 5:28 AM EST 5:34 PM EST
Astronomical Twilight 4:54 AM EST 6:08 PM EST
Moon No Moon Rise 12:50 PM EST (11/7)
Length of Visible Light 10h 56m
Length of Day
9h 54m
Last Quarter, 43% of the Moon is Illuminated
Nov 7
Last Quarter
Nov 13
New
Nov 20
First Quarter
Nov 28
Full
Dec 6
Last Quarter

Hourly Weather History & Observations

Time (EST) Temp. Dew Point Humidity Pressure Visibility Wind Dir Wind Speed Gust Speed Precip Events Conditions
12:54 AM 19.9 °F 16.0 °F 85% 30.23 in - North - - N/A   Unknown
1:54 AM 19.0 °F 15.1 °F 85% 30.27 in - North - - N/A   Unknown
2:54 AM 18.0 °F 15.1 °F 88% 30.27 in - North - - N/A   Unknown
3:54 AM 17.1 °F 15.1 °F 92% 30.25 in - North - - N/A   Unknown
4:54 AM 17.1 °F 15.1 °F 92% 30.24 in - North - - N/A   Unknown
5:54 AM 17.1 °F 14.0 °F 88% 30.24 in - North - - N/A   Unknown
6:54 AM 16.0 °F 12.9 °F 88% 30.25 in - North - - N/A   Unknown
7:54 AM 17.1 °F 14.0 °F 88% 30.25 in - North - - N/A   Unknown
8:54 AM 19.0 °F 16.0 °F 88% 30.23 in - North - - N/A   Unknown
9:54 AM 21.9 °F 18.0 °F 85% 30.21 in - North - - N/A   Unknown
10:54 AM 25.0 °F 19.0 °F 78% 30.18 in - North - - N/A   Unknown
11:54 AM 28.0 °F 19.9 °F 72% 30.15 in - North - - N/A   Unknown
12:54 PM 30.9 °F 19.9 °F 64% 30.12 in - North - - N/A   Unknown
1:54 PM 34.0 °F 18.0 °F 52% 30.10 in - North - - N/A   Unknown
2:54 PM 34.0 °F 17.1 °F 50% 30.08 in - North - - N/A   Unknown
3:54 PM 34.0 °F 18.0 °F 52% 30.06 in - North - - N/A   Unknown
4:54 PM 34.0 °F 19.0 °F 54% 30.06 in - North - - N/A   Unknown
5:54 PM 34.0 °F 19.9 °F 56% 30.06 in - North - - N/A   Unknown
6:54 PM 34.0 °F 19.0 °F 54% 30.06 in - North - - N/A   Unknown
7:54 PM 34.0 °F 19.0 °F 54% 30.04 in - North - - N/A   Unknown
8:54 PM 34.0 °F 19.0 °F 54% 30.03 in - North - - N/A   Unknown
9:54 PM 34.0 °F 18.0 °F 52% 30.01 in - North - - N/A   Unknown
10:54 PM 34.0 °F 17.1 °F 50% 29.99 in - North - - N/A   Unknown
11:54 PM 33.1 °F 17.1 °F 52% 29.97 in - North - - N/A   Unknown